This demonstration page uses our WeatherBlox Daily Observations layout. Learn more.

Left ArrowRight Arrow

31.84235, -102.49876

Hourly Observations for May 5, 2022

Temp ( °F °C ) Dew Point ( °F °C ) Humidity (%) Winds ( mph kmh ) Pressure ( in mb ) Visibility ( mi km ) Precip ( " mm )
12:53 am 00:53 Clear 72 22.2 59 15 64 64 S 16 26 29.70 1006 9 14 0.00 0.00
1:53 am 01:53 Clear 70 21.1 61 16.1 73 73 SSW 15 24 29.70 1006 8 13 0.00 0.00
2:53 am 02:53 Hazy 69 20.6 62 16.7 78 78 WSW 8 13 29.70 1006 6 10 0.00 0.00
3:53 am 03:53 Partly Cloudy 71 21.7 62 16.7 73 73 W 10 17 29.74 1007 7 11 0.00 0.00
4:42 am 04:42 Mostly Cloudy with Haze 64 17.8 48 8.9 56 56 N 16 26 29.82 1010 6 10 0.00 0.00
4:53 am 04:53 Cloudy with Haze 63 17.2 50 10 63 63 N 17 28 29.78 1009 6 10 0.00 0.00
5:28 am 05:28 Partly Cloudy 60 15.6 51 10.6 72 72 N 17 28 29.86 1011 7 11 0.00 0.00
5:53 am 05:53 Clear 58 14.4 50 10 75 75 N 15 24 29.81 1009 7 11 0.00 0.00
6:53 am 06:53 Clear 56 13.3 50 10 81 81 N 9 15 29.84 1011 8 13 0.00 0.00
7:53 am 07:53 Sunny 57 13.9 50 10 78 78 N 10 17 29.88 1012 9 14 0.00 0.00
8:53 am 08:53 Sunny 60 15.6 49 9.4 67 67 N 16 26 29.91 1013 10 16 0.00 0.00
9:53 am 09:53 Sunny 62 16.7 46 7.8 56 56 N 14 22 29.93 1014 10 16 0.00 0.00
10:53 am 10:53 Sunny 67 19.4 44 6.7 44 44 N 14 22 29.92 1013 10 16 0.00 0.00
11:53 am 11:53 Sunny 71 21.7 41 5 34 34 N 15 24 29.91 1013 10 16 0.00 0.00
12:53 pm 12:53 Sunny 76 24.4 36 2.2 23 23 NNW 14 22 29.90 1013 10 16 0.00 0.00
1:53 pm 13:53 Sunny 78 25.6 32 0 19 19 NNW 8 13 29.88 1012 10 16 0.00 0.00
2:53 pm 14:53 Sunny 82 27.8 28 -2.2 14 14 NW 10 17 29.84 1011 10 16 0.00 0.00
3:53 pm 15:53 Sunny 83 28.3 25 -3.9 12 12 W 9 15 29.81 1009 10 16 0.00 0.00
4:53 pm 16:53 Sunny 85 29.4 24 -4.4 11 11 NW 16 26 29.80 1009 10 16 0.00 0.00
5:53 pm 17:53 Sunny 86 30 21 -6.1 9 9 NW 16 26 29.79 1009 10 16 0.00 0.00
6:53 pm 18:53 Sunny 85 29.4 18 -7.8 8 8 W 16 26 29.79 1009 10 16 0.00 0.00
7:53 pm 19:53 Sunny 83 28.3 17 -8.3 8 8 WNW 7 11 29.80 1009 10 16 0.00 0.00
8:53 pm 20:53 Clear 79 26.1 18 -7.8 10 10 N 5 7 29.80 1009 10 16 0.00 0.00
9:53 pm 21:53 Clear 73 22.8 17 -8.3 12 12 NE 3 6 29.83 1010 10 16 0.00 0.00
10:53 pm 22:53 Clear 73 22.8 18 -7.8 12 12 Calm 29.85 1011 10 16 0.00 0.00
11:53 pm 23:53 Clear 67 19.4 22 -5.6 18 18 Calm 29.85 1011 10 16 0.00 0.00

Powered by AerisWeather